Temp
79 84 86 86 74 72 68 72 76 77 79 85 85 84 82 83 81 77 84 88 88 87 86 84 79 80 80 79 79 79 79 79 79 79 79 79 79 79 79 79 79 80 81 81 81 81 81 81 80
82 83 85 80 69 64 69 73 74 78 82 86 85 85 83 81 84 79 83 86 89 87 86 86 79 79 79 79 79 78 78 79 79 79 79 79 79 79 79 79 79 80 81 81 81 81 81 80 80
81 81 80 75 68 65 68 72 77 81 85 83 85 86 85 81 84 84 89 88 88 87 87 84 79 79 79 79 78 78 78 78 79 79 79 79 79 78 78 79 79 80 81 81 81 81 80 80 80
82 81 77 68 65 69 72 75 76 81 86 85 86 83 85 85 87 90 88 88 88 89 88 81 79 79 79 79 78 78 78 78 79 79 79 79 79 78 78 79 79 80 81 81 80 80 80 79 79
80 76 68 63 67 69 74 78 78 79 81 84 83 80 81 83 86 88 86 88 88 88 89 86 79 79 79 79 79 78 78 78 78 79 79 79 78 78 78 78 79 80 80 80 80 79 79 79 79
71 73 63 61 66 69 75 79 79 80 82 84 82 81 79 84 84 86 88 88 89 86 87 85 79 78 78 79 78 78 78 78 78 78 78 78 78 78 78 78 79 79 79 79 79 78 78 78 78
71 67 64 65 66 68 73 81 79 80 81 82 85 78 78 80 83 85 84 85 87 87 86 85 86 82 78 78 78 78 77 77 77 77 77 77 78 78 78 78 78 78 78 78 78 78 78 77 78
72 70 64 64 64 68 76 79 82 79 79 86 84 77 77 78 82 84 84 82 85 86 87 85 85 87 86 84 78 78 77 77 77 77 77 77 77 77 77 77 77 78 78 78 78 78 77 77 77
70 64 61 64 64 70 78 77 81 84 80 78 77 75 78 79 82 81 81 81 80 82 84 87 87 85 85 86 83 78 78 77 77 78 77 77 86 84 82 80 77 78 78 78 77 77 77 77 77
68 62 63 67 69 71 76 77 77 78 78 76 74 77 79 78 79 79 79 79 80 80 82 85 83 82 84 86 84 85 85 85 85 84 83 85 84 83 83 80 77 77 78 77 77 77 77 78 88
66 61 67 67 72 74 74 75 79 76 75 77 75 74 77 78 77 78 80 80 82 82 82 84 82 82 85 85 84 85 85 84 83 83 82 82 83 82 83 82 83 83 80 86 84 84 86 85 86
60 66 67 71 72 73 70 75 76 77 79 80 78 77 76 76 77 78 78 81 82 81 82 83 83 82 83 85 84 84 84 84 84 84 81 80 81 79 79 81 82 81 85 83 83 86 83 83 83
61 62 68 72 73 73 73 72 74 75 78 79 77 77 76 76 76 79 80 79 78 77 77 81 82 81 81 81 83 84 84 84 84 83 82 82 81 78 80 81 83 81 84 84 84 83 83 83 84
65 65 66 70 70 71 69 69 71 76 78 75 76 76 76 76 75 75 77 76 77 77 76 78 80 80 81 80 80 82 82 83 82 81 81 79 78 79 80 78 77 80 83 85 84 83 83 84 83
62 59 64 64 68 68 70 65 66 77 77 75 74 75 76 76 76 77 77 76 78 78 78 77 79 79 78 79 80 80 81 81 80 80 80 80 80 80 80 80 80 83 83 82 82 82 82 83 83
59 60 53 64 63 67 68 61 70 77 75 74 75 75 74 76 78 79 79 78 78 79 77 78 82 81 79 79 79 79 77 77 77 79 82 80 80 80 78 79 80 82 81 83 82 82 82 83 83
56 50 52 57 65 65 64 61 69 75 75 74 75 76 77 77 77 78 80 79 77 78 78 77 79 80 79 78 77 76 75 77 77 79 79 79 81 80 79 80 81 79 80 80 81 81 80 80 80
48 51 53 55 59 63 61 62 67 71 73 74 75 77 78 79 80 80 80 80 80 79 78 78 78 78 78 79 77 75 76 78 77 76 78 79 81 80 78 78 77 78 78 78 81 78 80 77 75
55 54 52 57 61 60 60 62 66 68 70 72 74 74 76 78 84 82 81 80 78 78 77 77 77 77 78 77 74 74 74 76 78 79 79 80 81 80 77 78 77 76 75 77 78 78 75 75 72
56 54 53 58 62 62 58 59 67 70 69 72 73 74 74 77 79 81 80 79 76 76 76 77 77 77 77 79 77 79 78 79 80 83 82 81 80 79 77 78 77 77 77 74 73 74 71 69 72
52 54 54 56 58 61 58 56 60 67 68 70 73 76 76 77 78 80 80 79 79 76 75 76 77 78 78 78 78 78 79 80 78 82 82 81 79 78 78 78 78 77 78 77 75 75 73 69 74
47 57 58 56 55 48 59 49 56 64 65 67 70 72 74 76 77 79 81 80 79 80 80 78 78 77 77 76 76 75 76 77 80 82 83 84 83 81 79 79 77 75 78 77 77 77 73 71 69
52 58 57 58 56 54 52 51 57 58 60 65 68 72 73 76 78 79 82 84 86 83 81 80 76 76 77 75 76 76 74 78 78 79 79 79 79 80 80 79 78 75 73 73 72 71 72 72 70
60 55 54 55 55 46 53 54 54 58 63 67 71 73 74 75 77 78 82 83 84 88 82 79 75 74 75 75 75 74 73 75 76 77 78 76 75 73 74 75 76 76 76 73 74 73 72 72 69
56 50 42 42 44 44 53 52 57 63 67 68 70 73 74 76 76 76 77 80 81 82 80 78 75 71 73 74 75 75 76 75 71 70 71 71 71 70 70 72 72 72 72 73 73 72 70 73 73
53 53 47 37 39 45 51 48 57 66 68 70 70 70 72 73 76 76 77 77 80 80 74 75 74 73 73 72 71 71 70 72 71 70 69 69 70 72 72 72 72 72 72 72 71 70 68 69 69
52 49 57 47 49 48 50 54 61 65 66 67 66 66 68 71 74 73 73 74 75 73 72 71 68 68 70 69 69 68 68 68 66 67 69 71 70 72 70 70 70 70 71 70 70 71 70 70 70
57 60 47 51 38 39 46 50 55 59 62 64 64 63 65 67 68 66 65 66 67 69 68 69 69 67 68 67 68 68 68 69 68 68 67 67 68 69 69 69 69 69 69 69 69 70 71 70 73
54 52 52 52 50 43 40 49 59 58 61 59 61 62 60 61 60 59 60 63 65 67 67 65 65 65 65 66 66 65 66 68 67 66 66 66 65 66 67 67 67 67 66 66 66 67 68 68 68
60 56 54 49 42 46 48 48 60 60 62 62 61 59 60 59 59 61 63 65 66 66 66 64 65 65 66 67 65 65 63 63 61 60 63 64 63 64 64 65 65 65 65 65 64 64 65 64 64
MSLP
1011.20 1010.97 1010.81 1010.24 1010.03 1009.04 1007.53 1006.66 1006.19 1005.53 1005.19 1005.23 1005.33 1005.26 1005.51 1005.87 1005.94 1006.79 1007.22 1007.87 1008.32 1009.02 1010.04 1010.91 1011.51 1011.89 1012.09 1012.35 1012.68 1012.97 1013.41 1013.78 1014.06 1014.33 1014.55 1014.68 1015.12 1015.49 1015.73 1015.91 1016.19 1016.40 1016.50 1016.61 1016.60 1016.53 1016.50 1016.51 1016.64
1010.94 1010.69 1010.46 1009.94 1009.21 1008.08 1007.04 1006.71 1006.05 1005.76 1005.56 1005.30 1005.11 1005.22 1005.38 1005.57 1006.25 1007.12 1007.37 1008.15 1008.53 1009.04 1010.04 1010.86 1011.69 1012.09 1012.17 1012.59 1013.00 1013.44 1013.75 1014.11 1014.35 1014.64 1014.77 1015.04 1015.43 1015.84 1015.94 1016.13 1016.30 1016.54 1016.72 1016.85 1016.96 1016.98 1016.92 1016.84 1016.90
1010.84 1010.73 1010.13 1009.41 1008.66 1007.24 1006.58 1006.56 1006.13 1005.78 1005.35 1005.13 1004.73 1005.06 1005.28 1005.86 1006.42 1006.91 1006.96 1007.87 1008.66 1009.34 1010.05 1011.02 1011.78 1012.34 1012.54 1012.91 1013.24 1013.69 1014.14 1014.34 1014.55 1014.85 1015.07 1015.38 1015.70 1016.02 1016.18 1016.24 1016.33 1016.48 1016.68 1016.86 1017.07 1017.08 1017.09 1017.15 1017.20
1010.49 1010.58 1010.66 1009.39 1007.86 1007.67 1006.91 1006.58 1006.48 1005.80 1005.12 1005.28 1005.20 1004.98 1005.73 1006.45 1006.39 1006.53 1007.46 1007.89 1008.64 1009.45 1010.23 1011.41 1012.07 1012.64 1013.07 1013.29 1013.48 1013.86 1014.36 1014.75 1014.88 1015.04 1015.32 1015.70 1016.08 1016.37 1016.50 1016.45 1016.41 1016.50 1016.69 1016.83 1017.05 1017.21 1017.34 1017.38 1017.38
1010.65 1010.35 1009.45 1008.65 1007.67 1007.51 1007.12 1006.82 1006.48 1005.83 1005.53 1005.28 1005.51 1005.37 1005.94 1006.76 1006.89 1006.97 1007.75 1008.26 1008.74 1009.82 1010.46 1011.43 1012.23 1012.63 1013.06 1013.53 1013.69 1013.96 1014.43 1014.83 1015.20 1015.40 1015.59 1015.84 1016.20 1016.42 1016.50 1016.59 1016.62 1016.64 1016.87 1016.97 1017.06 1017.25 1017.36 1017.52 1017.56
1010.25 1009.98 1008.82 1007.68 1007.39 1007.46 1006.98 1006.72 1006.49 1005.91 1005.63 1005.38 1005.48 1005.78 1006.54 1007.32 1007.36 1007.60 1008.17 1008.55 1009.17 1009.71 1010.40 1011.32 1012.25 1012.66 1012.99 1013.22 1013.57 1014.00 1014.39 1014.77 1015.15 1015.48 1015.63 1015.88 1016.16 1016.46 1016.65 1016.68 1016.76 1016.88 1017.05 1017.22 1017.18 1017.15 1017.20 1017.42 1017.58
1009.24 1009.03 1007.90 1007.85 1007.21 1007.04 1006.90 1006.60 1006.24 1005.97 1005.71 1005.37 1005.69 1005.96 1007.17 1007.64 1007.93 1008.29 1008.71 1009.21 1009.66 1009.91 1010.55 1011.30 1011.95 1012.68 1013.21 1013.61 1013.88 1014.01 1014.22 1014.63 1015.06 1015.35 1015.76 1015.90 1016.17 1016.45 1016.70 1016.89 1016.94 1017.01 1017.03 1017.18 1017.26 1017.36 1017.23 1017.23 1017.38
1009.62 1009.15 1007.99 1007.66 1007.04 1006.46 1006.81 1006.56 1006.23 1006.15 1005.82 1005.99 1006.21 1006.39 1007.13 1008.17 1008.51 1008.70 1009.05 1009.76 1010.18 1010.49 1010.77 1011.33 1011.88 1012.21 1012.74 1013.39 1013.97 1014.25 1014.60 1014.83 1014.97 1015.34 1015.61 1015.92 1016.12 1016.24 1016.55 1016.68 1016.74 1016.88 1017.06 1017.17 1017.22 1017.25 1017.25 1017.23 1017.32
1010.11 1008.83 1007.23 1007.22 1007.31 1006.80 1006.83 1006.34 1006.39 1006.39 1006.21 1006.62 1007.16 1007.53 1008.01 1008.66 1008.93 1008.91 1009.20 1009.85 1010.36 1010.82 1010.99 1011.22 1011.71 1012.37 1012.67 1013.09 1013.85 1014.23 1014.47 1014.78 1014.92 1015.08 1015.43 1015.76 1015.71 1016.03 1016.33 1016.52 1016.83 1017.07 1017.14 1017.12 1017.09 1017.17 1017.16 1017.25 1017.31
1009.08 1008.20 1007.53 1007.83 1007.66 1007.17 1006.89 1006.59 1006.49 1006.47 1006.46 1006.94 1007.61 1008.12 1008.38 1008.77 1008.91 1008.76 1008.98 1009.35 1009.66 1010.40 1010.89 1011.18 1011.78 1012.34 1012.69 1013.08 1013.52 1013.81 1014.02 1014.37 1014.55 1014.79 1015.11 1015.19 1015.57 1015.89 1016.15 1016.38 1016.72 1016.92 1017.09 1017.23 1017.24 1017.25 1017.27 1017.20 1016.66
1008.83 1007.61 1007.93 1008.05 1007.75 1007.63 1007.26 1006.99 1006.79 1006.63 1006.50 1006.84 1007.28 1008.08 1008.46 1008.62 1009.00 1008.95 1009.07 1009.43 1009.53 1009.97 1010.67 1011.06 1011.65 1012.11 1012.10 1012.52 1013.10 1013.42 1013.59 1014.12 1014.60 1014.75 1014.87 1015.17 1015.55 1015.88 1016.00 1016.11 1016.11 1016.30 1016.62 1016.58 1016.78 1016.86 1016.73 1016.57 1016.60
1008.87 1008.40 1008.03 1007.86 1007.90 1007.70 1007.53 1007.31 1006.89 1006.87 1006.68 1006.98 1007.53 1008.12 1008.49 1008.57 1008.84 1008.95 1009.13 1009.41 1009.79 1010.21 1010.43 1010.86 1011.38 1011.91 1012.11 1012.36 1012.73 1013.10 1013.45 1013.83 1014.22 1014.65 1015.06 1015.38 1015.39 1015.79 1015.98 1016.04 1016.22 1016.30 1016.27 1016.38 1016.57 1016.38 1016.60 1016.57 1016.43
1008.38 1008.35 1008.24 1007.88 1007.82 1007.80 1007.78 1007.38 1007.15 1006.93 1007.22 1007.49 1007.93 1008.28 1008.56 1008.75 1008.89 1008.92 1009.15 1009.63 1010.06 1010.53 1010.91 1010.95 1011.18 1011.59 1012.03 1012.27 1012.33 1012.81 1013.11 1013.60 1013.98 1014.53 1014.77 1014.90 1015.10 1015.45 1015.63 1015.81 1016.03 1016.17 1016.16 1016.24 1016.23 1016.24 1016.37 1016.27 1016.10
1008.01 1008.21 1008.27 1008.08 1007.98 1007.96 1007.82 1007.78 1007.64 1007.04 1007.46 1007.76 1008.01 1008.28 1008.59 1008.78 1008.91 1009.17 1009.29 1009.44 1009.89 1010.34 1010.82 1011.10 1011.31 1011.35 1011.56 1012.12 1012.34 1012.55 1012.87 1013.13 1013.65 1014.19 1014.39 1014.78 1014.92 1014.91 1015.07 1015.59 1015.94 1015.88 1015.75 1015.68 1015.82 1015.88 1015.95 1015.88 1015.82
1008.35 1008.29 1008.39 1008.20 1008.06 1007.85 1008.11 1007.76 1007.40 1007.08 1007.38 1007.64 1007.98 1008.22 1008.56 1008.68 1008.99 1008.95 1009.18 1009.35 1009.56 1009.79 1010.19 1010.64 1010.96 1011.11 1011.12 1011.38 1011.77 1012.10 1012.60 1012.85 1013.13 1013.26 1013.60 1013.96 1014.26 1014.41 1014.70 1015.27 1015.50 1015.36 1015.46 1015.59 1015.62 1015.72 1015.86 1015.78 1015.50
1008.07 1008.07 1007.64 1007.38 1008.04 1007.91 1008.06 1005.97 1007.13 1007.33 1007.31 1007.40 1007.70 1007.98 1008.32 1008.46 1008.47 1008.83 1009.09 1009.38 1009.77 1009.83 1009.85 1010.23 1010.22 1010.46 1010.57 1010.55 1010.81 1011.30 1011.89 1012.71 1013.01 1013.37 1012.98 1013.54 1013.98 1014.45 1014.80 1014.95 1015.07 1015.21 1015.38 1015.33 1015.51 1015.49 1015.49 1015.45 1015.37
1007.10 1006.07 1006.62 1007.17 1007.50 1007.60 1007.74 1006.92 1007.00 1007.05 1007.13 1007.22 1007.41 1007.62 1007.76 1008.06 1008.38 1008.50 1008.77 1009.17 1009.52 1009.67 1009.90 1010.13 1010.35 1010.33 1010.31 1010.76 1010.97 1011.16 1010.68 1011.68 1012.61 1013.13 1013.62 1013.62 1014.08 1014.45 1014.67 1014.75 1014.68 1015.13 1015.12 1015.24 1015.15 1015.46 1015.55 1015.39 1015.19
1005.00 1005.74 1006.47 1006.45 1007.25 1007.44 1007.38 1006.96 1006.77 1006.76 1006.87 1006.99 1007.22 1007.31 1007.31 1007.32 1007.41 1007.96 1008.39 1008.76 1009.07 1009.36 1009.76 1010.05 1010.26 1010.43 1010.78 1011.01 1011.43 1012.15 1011.64 1011.33 1012.20 1012.91 1013.09 1013.25 1013.94 1014.19 1014.23 1014.40 1014.46 1014.47 1014.80 1014.69 1014.68 1015.03 1015.27 1015.63 1015.54
1005.93 1005.91 1006.11 1006.74 1006.99 1007.29 1007.28 1007.26 1006.97 1006.97 1007.07 1006.88 1007.01 1007.27 1007.15 1006.99 1006.85 1007.56 1007.87 1008.36 1008.83 1009.13 1009.34 1009.60 1009.80 1010.20 1010.78 1011.08 1011.41 1011.96 1010.98 1011.89 1011.99 1012.40 1012.73 1012.74 1013.42 1013.58 1013.60 1013.76 1014.00 1013.94 1014.27 1014.07 1013.96 1014.55 1015.09 1015.22 1015.55
1005.90 1005.58 1005.85 1006.56 1006.83 1007.02 1007.30 1007.16 1006.89 1006.66 1006.98 1006.95 1006.91 1006.97 1007.03 1006.96 1006.85 1006.97 1007.47 1007.82 1008.27 1008.62 1008.85 1009.12 1009.43 1009.90 1010.39 1010.74 1011.03 1010.78 1010.91 1010.58 1011.34 1011.72 1012.07 1012.39 1013.02 1013.07 1013.15 1013.36 1013.41 1013.39 1013.67 1013.76 1013.84 1013.50 1014.58 1014.80 1015.34
1006.09 1005.32 1005.30 1005.38 1006.59 1007.05 1007.09 1007.14 1006.86 1006.85 1007.03 1006.96 1006.79 1006.67 1006.81 1006.77 1006.54 1006.52 1006.77 1007.07 1007.56 1008.02 1008.36 1008.57 1008.73 1009.19 1009.72 1010.07 1010.33 1010.45 1010.68 1010.93 1011.66 1011.62 1011.46 1011.98 1012.48 1012.69 1012.77 1012.80 1013.11 1012.86 1012.96 1013.14 1013.29 1013.60 1013.45 1014.35 1014.47
1006.10 1005.90 1005.52 1005.60 1005.75 1006.18 1006.68 1005.99 1006.26 1006.04 1006.22 1006.36 1006.44 1006.63 1006.54 1006.48 1006.50 1006.29 1006.21 1006.25 1006.54 1006.69 1007.55 1007.98 1008.34 1008.70 1009.10 1009.78 1009.98 1010.26 1010.61 1010.91 1011.31 1011.22 1011.43 1011.64 1011.65 1012.04 1012.18 1012.09 1012.20 1012.73 1012.67 1012.49 1012.79 1013.03 1013.12 1013.91 1013.62
1005.82 1006.06 1005.70 1005.46 1005.43 1005.84 1006.53 1006.13 1005.48 1005.84 1005.48 1005.52 1005.69 1005.61 1005.67 1005.69 1005.83 1005.69 1005.49 1005.57 1005.59 1005.89 1006.50 1007.47 1008.33 1008.86 1009.20 1009.48 1009.88 1010.39 1010.95 1011.13 1011.01 1011.54 1011.59 1011.75 1011.67 1011.56 1011.60 1011.85 1012.08 1012.43 1012.30 1012.17 1012.60 1012.92 1012.97 1013.01 1013.14
1005.65 1006.01 1005.96 1005.91 1005.69 1005.57 1005.39 1005.17 1005.02 1004.77 1004.44 1004.39 1004.55 1004.72 1004.94 1005.18 1005.39 1005.38 1005.34 1005.41 1005.41 1005.59 1006.44 1007.16 1008.00 1008.62 1009.22 1009.43 1009.89 1010.14 1010.56 1011.03 1011.16 1011.36 1011.13 1011.29 1011.97 1012.11 1012.28 1012.18 1011.97 1011.82 1012.02 1012.09 1011.99 1012.00 1011.77 1012.39 1012.44
1005.38 1005.47 1005.35 1005.70 1005.28 1004.84 1005.44 1005.19 1004.25 1004.45 1004.30 1004.20 1004.14 1004.15 1004.36 1004.52 1004.78 1005.04 1005.31 1005.52 1005.69 1006.04 1007.02 1007.65 1008.14 1008.82 1009.39 1009.68 1009.77 1010.22 1010.60 1011.16 1011.46 1011.88 1011.85 1011.91 1012.38 1012.63 1012.83 1012.55 1012.08 1012.07 1012.27 1012.34 1012.19 1012.02 1012.00 1011.25 1012.24
1003.89 1003.69 1003.07 1003.21 1003.94 1004.63 1005.58 1004.44 1003.98 1004.09 1004.11 1004.21 1004.18 1004.08 1004.18 1004.29 1004.43 1004.74 1005.06 1005.54 1005.81 1006.54 1007.70 1008.12 1008.81 1009.26 1009.72 1009.98 1010.42 1010.88 1011.35 1011.86 1012.36 1012.75 1012.70 1012.34 1012.25 1012.68 1012.84 1012.36 1012.29 1012.42 1012.15 1011.82 1011.73 1011.59 1011.63 1011.76 1011.98
1003.67 1003.47 1003.70 1003.76 1004.33 1004.35 1004.90 1004.84 1004.52 1004.40 1004.25 1004.17 1003.90 1003.86 1003.84 1004.17 1004.33 1004.92 1005.34 1005.86 1006.42 1007.23 1007.96 1008.29 1009.49 1010.25 1010.77 1010.86 1011.12 1011.79 1012.09 1012.67 1013.16 1013.47 1013.49 1012.68 1012.65 1012.68 1012.77 1012.48 1012.28 1012.44 1012.41 1012.12 1011.94 1011.75 1011.72 1011.73 1011.53
1002.08 1003.38 1003.66 1003.27 1003.63 1003.90 1004.65 1004.37 1003.81 1004.25 1004.13 1004.19 1004.27 1004.34 1004.83 1005.42 1005.94 1006.60 1007.16 1007.55 1007.94 1008.38 1008.95 1009.64 1010.31 1010.91 1011.78 1011.88 1012.22 1012.47 1012.63 1013.38 1013.45 1013.20 1012.86 1013.17 1013.47 1013.40 1013.26 1013.28 1012.99 1012.66 1012.64 1012.54 1012.41 1012.05 1011.89 1011.45 1010.95
1002.24 1002.54 1002.96 1003.08 1003.45 1003.22 1004.02 1004.31 1004.65 1004.85 1004.90 1005.00 1005.36 1006.01 1006.61 1007.07 1007.78 1008.21 1008.68 1008.87 1009.31 1010.09 1010.54 1011.21 1011.46 1012.45 1012.87 1013.12 1012.51 1012.78 1013.49 1013.41 1013.42 1013.42 1013.96 1014.17 1014.26 1014.05 1014.11 1013.79 1013.52 1013.05 1012.93 1012.87 1012.49 1012.27 1011.89 1011.51 1011.13
1001.77 1002.15 1002.45 1002.41 1003.60 1003.59 1003.46 1004.80 1005.27 1005.44 1005.51 1005.74 1006.36 1007.19 1007.70 1008.32 1008.97 1009.34 1009.47 1009.95 1010.63 1011.28 1011.82 1012.28 1012.55 1013.07 1013.67 1013.72 1013.06 1013.74 1014.12 1014.04 1014.36 1014.20 1015.05 1015.04 1014.83 1014.70 1014.55 1014.14 1013.86 1013.47 1013.32 1013.11 1012.81 1012.51 1012.17 1011.81 1011.52
Wind_Speed
9 7 1 2 4 3 4 4 3 2 3 2 3 3 3 6 5 4 3 9 20 22 19 19 16 14 15 16 17 17 16 16 16 17 17 17 15 14 14 13 12 11 12 11 12 13 14 14 13
3 1 1 2 5 7 6 3 7 2 5 10 4 4 1 1 3 6 13 12 21 21 19 18 16 14 15 16 17 17 17 16 16 16 16 15 14 13 13 12 11 12 11 11 10 10 11 11 11
0 2 3 3 4 11 5 5 2 7 10 3 1 3 0 3 4 10 8 19 21 20 19 17 17 15 15 16 17 17 16 16 16 16 15 14 13 12 11 11 11 12 11 11 10 9 9 9 8
3 3 3 7 13 7 4 7 2 7 3 4 7 4 5 3 1 6 18 22 21 19 18 18 17 16 15 17 18 17 15 14 15 15 14 14 12 11 10 10 10 10 11 10 10 8 7 6 5
2 1 7 7 17 3 7 5 1 6 5 10 7 2 3 4 5 14 19 19 21 18 17 18 16 17 17 17 18 18 17 15 13 13 13 13 12 10 9 8 8 9 9 9 9 8 6 4 4
4 2 8 18 16 8 6 5 4 5 5 7 4 3 5 1 6 13 16 18 19 20 17 17 16 15 15 18 18 18 17 16 15 13 13 12 11 9 8 7 8 7 7 7 7 7 6 5 4
9 8 18 12 20 11 7 5 7 5 6 4 6 3 5 7 9 13 13 14 16 18 17 15 15 14 14 12 13 16 18 16 15 13 12 11 10 8 7 5 6 6 6 6 6 5 5 5 4
4 6 15 13 15 16 7 7 3 1 1 2 6 2 3 6 11 14 16 15 14 14 16 15 14 14 13 13 13 13 12 13 14 13 12 11 10 9 7 6 6 7 6 5 6 6 5 4 4
3 9 15 19 18 10 6 9 3 1 1 4 4 3 6 11 13 15 16 16 14 12 13 14 13 12 12 12 12 13 14 14 13 13 12 10 7 8 8 4 4 4 5 6 7 6 6 5 5
11 14 16 4 7 12 7 2 1 2 2 4 6 7 9 11 11 15 16 17 18 17 14 14 13 12 12 10 12 11 11 10 10 10 11 8 8 7 6 5 5 5 6 6 6 6 5 6 4
9 17 10 8 8 6 8 9 2 1 2 2 5 9 10 11 10 12 13 14 16 18 14 15 14 13 14 11 9 7 7 7 7 10 10 8 6 6 6 4 5 5 6 5 5 5 5 5 4
10 13 12 10 10 10 5 3 8 6 3 3 10 11 10 12 12 12 13 14 15 16 16 16 15 13 12 9 9 8 7 8 7 8 8 6 5 6 5 4 5 5 4 5 5 4 5 6 6
17 7 15 12 9 8 5 10 5 4 7 8 13 10 10 10 11 11 13 13 13 13 14 15 15 14 12 12 8 8 8 8 7 7 9 8 7 6 5 6 5 4 5 5 5 5 5 5 6
14 14 10 16 10 6 11 6 4 7 7 8 14 13 11 11 12 11 11 14 15 15 14 14 14 14 13 10 11 9 8 9 8 8 8 10 7 7 7 6 5 6 6 6 6 5 5 5 6
7 16 18 10 18 12 6 13 10 6 10 10 10 11 11 12 11 11 12 12 14 15 16 18 17 16 16 17 13 10 8 8 8 10 13 13 11 10 8 6 6 7 6 6 6 6 5 7 5
13 8 13 18 12 8 16 19 15 12 10 12 11 10 11 13 13 11 10 9 10 11 15 16 15 18 18 15 14 11 9 8 8 7 8 11 11 9 7 7 7 6 5 5 5 5 6 7 6
18 15 17 8 22 8 16 9 12 16 15 12 11 10 10 11 12 13 13 12 11 10 11 13 14 16 16 11 9 9 10 8 6 5 5 6 9 8 7 6 6 6 5 6 5 5 6 6 6
17 20 16 14 10 24 16 8 8 15 19 15 12 11 9 10 12 10 12 13 13 12 12 11 10 10 9 6 5 3 3 6 5 4 6 8 8 9 8 7 7 7 7 6 6 5 4 7 5
12 18 13 16 9 18 18 15 10 13 13 15 11 11 11 12 9 7 8 11 12 14 15 14 13 11 9 6 4 6 4 4 4 5 9 8 7 10 11 8 8 7 7 8 5 3 5 4 2
13 17 15 9 12 10 16 18 16 14 12 14 16 15 15 13 11 9 10 10 12 13 17 16 14 13 11 7 4 2 3 2 3 5 7 9 11 12 10 11 10 9 7 6 5 6 3 3 5
7 15 14 13 15 4 12 12 18 14 11 10 15 13 13 14 13 11 10 12 10 13 15 16 16 14 11 9 4 1 2 2 3 6 5 6 11 13 13 11 10 10 9 9 7 9 10 5 4
9 7 13 13 17 7 8 6 9 14 13 14 14 15 16 16 15 14 12 12 13 16 13 13 13 13 12 10 5 6 6 7 2 1 2 3 5 10 11 10 9 8 8 8 9 9 6 6 5
11 10 7 11 13 9 9 4 4 5 12 14 16 19 20 18 18 18 17 15 14 12 11 8 10 9 8 9 9 9 7 5 4 1 3 3 4 5 5 6 8 9 6 7 7 5 8 8 4
11 11 5 6 6 8 11 9 7 8 11 10 13 16 18 18 19 20 19 17 15 12 8 4 4 5 8 9 9 10 9 7 3 1 3 5 4 4 6 6 5 5 7 8 8 9 8 6 6
17 17 8 7 8 4 9 9 3 8 7 9 9 12 15 15 18 19 19 19 17 14 7 2 6 6 7 9 9 8 7 5 6 6 6 7 5 5 7 6 6 4 5 6 6 6 7 4 10
24 21 7 9 9 9 7 9 4 5 3 6 10 13 13 14 14 16 15 15 17 9 3 9 8 10 9 10 10 10 11 8 8 7 5 7 7 6 6 8 8 7 7 6 6 5 4 6 8
20 18 5 8 4 9 5 3 5 7 7 6 10 7 5 10 10 10 9 7 6 9 9 13 14 14 14 15 15 14 13 12 8 7 6 7 8 7 8 9 9 9 8 8 7 4 4 5 5
19 13 7 3 10 8 7 6 6 4 7 11 9 5 7 6 7 9 9 11 12 14 14 17 18 19 16 15 13 12 13 11 10 9 12 11 9 9 10 9 8 8 8 7 5 4 3 4 3
19 15 2 5 2 5 8 4 1 3 8 10 3 9 10 12 13 15 15 16 19 18 19 18 18 16 13 11 14 14 11 12 13 13 11 10 9 10 9 9 8 9 9 8 7 7 7 8 7
17 16 4 4 5 3 4 5 2 6 7 2 9 12 17 18 18 18 18 20 19 19 17 15 15 15 11 10 14 12 10 11 10 12 11 10 10 9 9 10 9 9 9 9 9 9 8 8 7
Wind_Direction
297 316 256 221 223 249 220 226 305 249 165 25 260 203 296 322 299 351 56 138 140 140 145 151 151 151 136 126 121 117 115 118 120 124 126 122 123 124 121 119 122 128 127 130 131 130 127 127 128
321 327 157 123 236 208 203 241 228 336 319 311 189 189 241 14 86 116 133 149 148 141 145 150 146 148 136 130 123 119 119 120 121 125 124 121 122 126 124 124 128 131 132 136 136 133 132 131 131
224 22 239 221 211 218 212 191 238 317 321 305 250 196 356 83 95 158 133 148 145 144 145 143 141 144 137 130 123 121 123 125 126 126 122 123 124 129 127 129 134 137 140 143 144 142 140 138 139
155 147 126 230 219 219 233 154 331 341 357 51 342 307 105 2 9 157 144 146 146 146 144 135 135 137 136 135 129 126 124 124 124 123 121 123 126 124 126 133 139 141 146 149 152 150 150 149 150
77 157 212 226 233 230 224 191 249 330 321 317 317 83 80 25 54 133 145 151 144 142 143 140 133 136 136 136 134 132 130 127 124 125 125 126 130 133 135 138 137 142 151 153 155 157 156 163 177
143 198 210 220 222 213 241 216 286 299 309 310 349 311 78 8 112 135 145 151 149 145 145 142 132 135 137 140 138 135 133 132 133 132 132 135 137 138 139 145 145 145 152 165 165 164 169 177 201
211 194 219 228 231 211 206 247 250 278 288 318 347 320 91 77 113 133 132 142 149 144 141 143 143 132 123 125 133 139 140 140 139 137 139 140 140 139 144 150 149 157 167 179 180 188 188 193 216
176 220 211 220 217 229 207 200 182 292 354 35 341 69 103 119 124 132 126 134 141 144 143 144 147 147 149 147 136 135 136 140 141 146 151 149 150 152 160 170 171 181 189 198 209 215 222 224 246
160 217 220 215 213 208 181 189 169 45 66 64 29 32 102 133 141 138 134 139 139 146 150 149 147 151 152 150 144 138 144 150 154 158 161 161 180 180 178 173 192 203 209 219 227 237 244 261 265
199 220 215 224 197 212 196 218 77 204 66 117 102 103 131 141 157 153 155 155 156 153 156 152 151 156 156 159 159 164 164 173 176 176 174 184 184 186 195 198 205 227 238 249 253 260 273 256 275
194 225 193 199 193 203 202 219 313 268 232 218 190 148 148 144 160 163 161 168 162 154 159 162 161 168 168 169 170 175 176 173 184 184 180 183 177 187 202 203 207 212 210 239 230 245 251 265 275
210 219 206 204 207 211 200 198 231 244 233 139 148 145 150 152 159 165 165 168 166 169 165 163 163 168 176 174 180 180 184 181 184 189 185 184 190 194 209 217 221 220 225 239 246 250 267 268 264
211 185 207 203 187 193 211 232 222 191 145 141 145 145 149 153 157 160 160 164 167 173 171 174 168 171 178 183 180 190 192 188 185 187 194 198 201 199 206 219 228 233 233 242 249 249 262 274 274
191 205 193 216 207 215 219 228 225 199 154 147 167 162 158 156 158 153 168 167 175 175 177 178 183 175 175 193 190 193 193 183 187 196 207 203 202 202 211 214 220 231 231 232 240 251 262 267 273
153 189 214 199 212 216 210 233 211 222 174 171 184 182 178 171 167 176 176 177 180 181 181 186 187 184 182 190 194 192 199 192 199 199 198 202 205 208 213 216 229 238 233 236 241 252 259 269 258
175 179 191 207 175 191 195 238 196 213 180 186 180 179 190 197 189 181 183 191 196 192 192 192 194 191 193 193 187 185 182 197 217 230 198 206 214 215 206 216 231 242 244 254 259 258 258 262 270
193 201 201 171 202 161 199 227 207 201 203 190 192 191 191 196 217 218 213 203 197 207 204 206 208 206 202 203 201 203 172 186 211 216 233 221 227 218 225 230 239 238 246 245 257 272 271 276 275
182 193 193 189 165 203 198 217 179 187 191 199 193 202 211 212 217 208 214 209 213 213 215 217 216 220 217 213 214 241 199 171 162 200 226 204 221 213 215 225 234 222 236 240 235 263 270 272 294
163 185 164 197 149 179 202 199 160 178 198 194 210 214 221 231 237 204 201 204 210 211 218 217 213 210 205 198 187 212 141 189 204 225 235 202 206 208 213 217 223 219 229 233 219 276 282 283 257
177 170 185 167 176 205 189 206 209 202 204 215 220 221 224 231 244 232 207 204 197 209 219 220 217 209 208 207 202 159 141 167 232 228 224 209 206 216 215 218 222 222 230 233 223 182 171 192 204
173 181 161 149 168 148 155 196 219 229 235 223 227 228 221 227 236 237 228 216 209 208 212 219 220 210 208 218 221 233 108 123 187 212 219 221 203 215 221 223 234 227 222 226 230 221 193 228 227
168 190 179 137 154 175 214 192 212 216 208 216 217 220 233 230 235 247 233 233 224 227 206 214 215 207 196 190 207 211 228 223 194 107 35 305 237 222 222 224 228 235 228 227 227 225 204 207 233
180 166 139 171 170 158 168 208 144 181 219 223 219 220 221 219 219 225 233 234 238 241 231 196 198 200 192 173 184 190 196 199 145 198 267 284 344 325 298 254 240 233 222 223 227 234 214 202 220
170 151 71 100 154 205 169 202 181 174 205 223 230 230 228 228 231 234 235 240 243 242 243 220 157 192 178 164 173 181 192 206 197 169 90 60 57 44 4 337 303 280 259 242 242 229 209 232 227
175 163 139 164 186 173 171 190 161 191 224 242 256 237 224 230 233 232 233 239 243 248 257 197 138 129 162 159 150 162 175 159 114 109 98 99 86 55 35 34 32 7 329 298 289 270 254 236 248
185 179 169 163 177 138 161 200 134 163 231 244 270 276 257 243 231 228 230 233 239 245 150 110 121 117 126 117 104 101 97 97 95 91 100 95 87 79 71 69 65 53 36 18 352 336 313 274 252
180 199 139 107 98 144 162 158 231 223 244 284 315 295 222 206 209 203 202 214 201 140 117 116 114 109 102 97 92 89 92 85 85 77 82 72 53 50 43 45 47 41 36 30 25 13 330 282 268
183 149 170 153 152 153 173 161 123 207 317 336 353 21 68 97 100 85 83 86 88 91 95 96 96 89 89 93 98 91 85 92 89 73 56 52 45 33 29 26 31 32 27 17 5 358 344 331 330
170 191 132 103 342 136 142 158 90 312 309 314 13 93 99 101 94 87 84 82 84 81 84 87 85 95 91 93 89 82 77 68 59 54 48 46 42 34 27 23 22 27 19 11 6 358 351 338 329
179 186 178 134 150 58 85 122 66 292 302 219 106 103 98 93 92 92 91 95 93 91 92 100 95 97 97 90 84 81 78 76 71 49 37 32 32 26 16 9 4 6 1 358 355 352 355 351 343